Mansfield, OH

2:24 PM EST on November 12, 2019 (GMT -0500)
Mansfield Lahm Regional

Weather History for KMFD - September, 2019

Change the Weather History Date:

Monday, September 16, 2019

  Actual Average Record
Temperature  
Mean Temperature 74 °F 63 °F  
Max Temperature 84 °F 73 °F 95 °F (1939)
Min Temperature 64 °F 53 °F 36 °F (1923)
Degree Days  
Heating Degree Days 0 4  
Month to date heating degree days 4 37  
Since 1 July heating degree days 4 62  
Cooling Degree Days 9 2  
Month to date cooling degree days 88 46  
Year to date cooling degree days 866 608  
Growing Degree Days 24 (Base 50)    
Moisture  
Dew Point 62 °F    
Average Humidity 72    
Maximum Humidity 93    
Minimum Humidity 51    
Precipitation  
Precipitation 0.00 in 0.11 in 2.01 in (1983)
Month to date precipitation 1.77 1.83  
Year to date precipitation 38.15 32.66  
Snow  
Snow 0.00 in 0.00 in - ()
Month to date snowfall 0.0 0.0  
Since 1 July snowfall 0.0 0.0  
Since 1 September snowfall 0.0 0.0  
Snow Depth 0.00 in    
Sea Level Pressure  
Sea Level Pressure 30.06 in    
Wind  
Wind Speed 7 mph (NW)    
Max Wind Speed 14 mph    
Max Gust Speed 18 mph    
Visibility 10 miles    
Events      
T = Trace of Precipitation, MM = Missing Value Source: NWS Daily Summary

Daily Weather History Graph

Daily Weather History Graph

Search for Another Location

Airport or City:

Astronomy

Sep. 16, 2019 Rise Set
Actual Time 7:11 AM EDT 7:37 PM EDT
Civil Twilight 6:43 AM EDT 8:05 PM EDT
Nautical Twilight 6:11 AM EDT 8:37 PM EDT
Astronomical Twilight 5:38 AM EDT 9:10 PM EDT
Moon 9:11 PM EDT (9/16) 9:17 AM EDT (9/16)
Length of Visible Light 13h 21m
Length of Day
12h 26m
Waning Gibbous, 94% of the Moon is Illuminated
Sep 16
Waning Gibbous
Sep 21
Last Quarter
Sep 28
New
Oct 5
First Quarter
Oct 13
Full

Hourly Weather History & Observations

Time (EDT) Temp. Heat Index Dew Point Humidity Pressure Visibility Wind Dir Wind Speed Gust Speed Precip Events Conditions
12:52 AM 69.1 °F - 59.0 °F 70% 30.06 in 10.0 mi South 6.9 mph - N/A   Mostly Cloudy
1:52 AM 68.0 °F - 59.0 °F 73% 30.06 in 10.0 mi SSW 5.8 mph - N/A   Mostly Cloudy
2:52 AM 70.0 °F - 59.0 °F 68% 30.05 in 10.0 mi SSW 5.8 mph - N/A   Mostly Cloudy
3:52 AM 69.1 °F - 59.0 °F 70% 30.04 in 10.0 mi SSW 5.8 mph - N/A   Partly Cloudy
4:52 AM 71.1 °F - 57.9 °F 63% 30.04 in 10.0 mi SW 4.6 mph - N/A   Mostly Cloudy
5:52 AM 69.1 °F - 59.0 °F 70% 30.05 in 10.0 mi NNW 5.8 mph - N/A   Mostly Cloudy
6:52 AM 66.9 °F - 57.9 °F 73% 30.06 in 10.0 mi SW 3.5 mph - N/A   Clear
7:52 AM 66.9 °F - 57.9 °F 73% 30.07 in 10.0 mi SW 3.5 mph - N/A   Mostly Cloudy
8:52 AM 70.0 °F - 59.0 °F 68% 30.08 in 10.0 mi WSW 3.5 mph - N/A   Mostly Cloudy
9:52 AM 75.0 °F - 61.0 °F 62% 30.08 in 10.0 mi WNW 4.6 mph - N/A   Clear
10:52 AM 77.0 °F - 62.1 °F 60% 30.08 in 9.0 mi NW 4.6 mph - N/A   Overcast
11:52 AM 80.1 °F 81.5 °F 63.0 °F 56% 30.08 in 10.0 mi NNW 4.6 mph - N/A   Clear
12:52 PM 80.1 °F 81.9 °F 64.9 °F 60% 30.06 in 5.0 mi NNW 5.8 mph - N/A   Haze
1:52 PM 82.9 °F 84.4 °F 64.0 °F 53% 30.06 in 10.0 mi North 10.4 mph - N/A   Scattered Clouds
2:52 PM 82.9 °F 84.0 °F 63.0 °F 51% 30.05 in 10.0 mi North 9.2 mph - N/A   Clear
3:52 PM 82.0 °F 83.4 °F 64.0 °F 54% 30.04 in 10.0 mi NNW 11.5 mph - N/A   Partly Cloudy
4:52 PM 82.0 °F 83.4 °F 64.0 °F 54% 30.04 in 10.0 mi NNW 11.5 mph - N/A   Clear
5:52 PM 79.0 °F - 64.9 °F 62% 30.04 in 10.0 mi NNW 12.7 mph - N/A   Scattered Clouds
6:52 PM 75.9 °F - 64.0 °F 67% 30.05 in 10.0 mi North 8.1 mph - N/A   Clear
7:52 PM 72.0 °F - 64.0 °F 76% 30.06 in 10.0 mi North 5.8 mph - N/A   Clear
8:52 PM 69.1 °F - 64.9 °F 87% 30.07 in 10.0 mi North 5.8 mph - N/A   Clear
9:52 PM 66.9 °F - 64.0 °F 90% 30.09 in 10.0 mi North 6.9 mph - N/A   Clear
10:52 PM 66.0 °F - 64.0 °F 93% 30.09 in 10.0 mi North 6.9 mph - N/A   Clear
11:52 PM 64.9 °F - 63.0 °F 93% 30.10 in 8.0 mi North 5.8 mph - N/A   Clear